Regional Weather Roundup
Issued by NWS Northern Indiana

Home | Current Version | Previous Version | Graphics & Text | Print | Product List | Glossary On
Versions: 1 2 3 4 5 6 7 8 9 10 11 12 13 14 15 16 17 18 19 20 21 22 23 24 25 26 27 28 29 30 31 32 33 34 35 36 37 38 39 40 41 42 43 44 45 46 47 48 49 50
000
ASUS43 KIWX 241310
RWRIWX

KIWX WEATHER ROUNDUP
NATIONAL WEATHER SERVICE NORTHERN INDIANA
900 AM EDT THU JUL 24 2014

NOTE: "FAIR" INDICATES FEW OR NO CLOUDS BELOW 12,000 FEET WITH NO
SIGNIFICANT WEATHER AND/OR OBSTRUCTIONS TO VISIBILITY.

* THESE STATIONS ARE NOT UNDER NWS QUALITY CONTROL. THEY ALSO MAY NOT
  REPORT WEATHER SUCH AS PRECIPITATION OR FOG.

INZ001>027-241400-
NORTHERN INDIANA

CITY           SKY/WX    TMP DP  RH WIND       PRES   REMARKS
GARY*          MOSUNNY   66  59  77 N12       30.17R
VALPARAISO     MOSUNNY   63  56  78 VRB5      30.16R
MICHIGAN CITY* SUNNY     61  55  82 CALM      30.17R
LAPORTE*       MOSUNNY   62  54  74 NE9       30.17R
KNOX*          PTSUNNY   60  55  85 NE8       30.15R
SOUTH BEND     MOSUNNY   63  55  75 N7        30.16S
ELKHART*       MOSUNNY   61  57  88 N5        30.16R
GOSHEN         PTSUNNY   63  55  75 NE7       30.15R
MONTICELLO*    SUNNY     60  57  88 NE3       30.13R
LOGANSPORT*    CLOUDY    63  55  77 NE6       30.14R
ROCHESTER*     PTSUNNY   63  59  88 NE6       30.15R
WARSAW*        MOSUNNY   61  57  88 N7        30.14S
ANGOLA*        CLOUDY    63  54  72 N6        30.14S
FORT WAYNE     MOSUNNY   65  52  62 NE12      30.13R
HUNTINGTON*    CLOUDY    63  55  76 NE5       30.12S
PERU/GRISSOM   MOSUNNY   63  63  99 NE10      30.12R
MARION*        SUNNY     62  56  79 NE8       30.13R

$$
INZ028>050-241400-
CENTRAL INDIANA

CITY           SKY/WX    TMP DP  RH WIND       PRES   REMARKS
LAFAYETTE      PTSUNNY   61  56  83 N8        30.13R
KOKOMO*        SUNNY     63  61  94 NE7       30.12R
MUNCIE*        MOSUNNY   63  57  81 NE8       30.11R
INDIANAPOLIS   MOSUNNY   64  58  80 NE13      30.09R

$$
MIZ043>046-050>051-056>058-064>065-071>073-077>080-241400-
SOUTHWEST LOWER MICHIGAN

CITY           SKY/WX    TMP DP  RH WIND       PRES   REMARKS
BATTLE CREEK   CLOUDY    63  53  70 NE6       30.17R
BENTON HARBOR  SUNNY     62  54  74 E5        30.17R
COLDWATER*     CLOUDY    63  56  78 NE7       30.15S
HILLSDALE*     MOSUNNY   62  56  81 N5        30.14S
HOLLAND        MOSUNNY   63  52  67 E6        30.18R
GRAND RAPIDS   MOSUNNY   62  53  72 NE7       30.18R
KALAMAZOO      CLOUDY    61  53  75 NE6       30.17R
STURGIS*       PTSUNNY   61  57  88 N7        30.15R
THREE RIVERS*  FAIR      62  57  86 N5        30.16S

$$
OHZ001>008-015>018-024>025-241400-
NORTHWEST OHIO

CITY           SKY/WX    TMP DP  RH WIND       PRES   REMARKS
WAUSEON*       FAIR      63  54  72 NE9       30.12S
DEFIANCE       PTSUNNY   64  53  67 NE8       30.12S
FINDLAY        SUNNY     64  56  75 N10       30.09R
TOLEDO EXPRESS SUNNY     62  54  74 N9        30.11S
TOLEDO METCALF SUNNY     65  55  70 N9        30.11S
LIMA           SUNNY     61  56  83 N8        30.10R

$$
&&



USA.gov is the U.S. government's official web portal to all federal, state and local government web resources and services.